FW1140 Weather Reports


time (UTC)temp
C
wind
direction
speed
KPH
gust
KPH
rain 1hr
cm
rain 24hr
cm
rain mn
cm
humidity
%
barometer
mb
20260504220006 11 304 32.2 53.1 0.00 0.00 0.00 39 1003.3
20260504214509 11 304 33.8 41.8 0.00 0.00 0.00 38 1003.3
20260504213006 11 304 37.0 54.7 0.00 0.00 0.00 37 1003.0
20260504211503 11 307 38.6 53.1 0.00 0.00 0.00 37 1002.9
20260504210001 11 307 37.0 46.7 0.00 0.00 0.00 40 1002.9
20260504204500 10 309 25.7 51.5 0.00 0.00 0.00 42 1003.0
20260504203100 11 307 29.0 61.2 0.00 0.00 0.00 43 1003.0
20260504201559 11 303 35.4 57.9 0.00 0.00 0.00 45 1002.8
20260504200058 11 308 37.0 53.1 0.00 0.00 0.00 44 1002.5
20260504194558 11 334 37.0 56.3 0.00 0.00 0.00 45 1002.4
20260504193054 11 316 35.4 53.1 0.00 0.00 0.00 45 1002.3
20260504191553 12 322 40.2 57.9 0.00 0.00 0.00 43 1002.0
20260504190059 12 300 33.8 54.7 0.00 0.00 0.00 43 1002.0
20260504184602 12 297 38.6 54.7 0.00 0.00 0.00 45 1001.9
20260504183057 12 319 37.0 53.1 0.00 0.00 0.00 44 1001.5
20260504181549 12 291 30.6 49.9 0.00 0.00 0.00 45 1001.4
20260504180045 12 297 32.2 46.7 0.00 0.00 0.00 45 1001.2
20260504174548 12 290 35.4 54.7 0.00 0.00 0.00 43 1000.8
20260504173042 12 321 33.8 49.9 0.00 0.00 0.00 43 1000.4
20260504171545 12 283 29.0 45.1 0.00 0.00 0.00 42 1000.4
20260504081511 13 198 37.0 48.3 0.00 0.00 0.00 47 994.7
20260504070104 14 224 30.6 40.2 0.00 0.00 0.00 46 996.0
20260504044539 12 214 20.9 27.4 0.00 0.00 0.00 49 998.5
20260504043030 12 207 20.9 27.4 0.00 0.00 0.00 49 998.7
20260504041530 11 198 17.7 22.5 0.00 0.00 0.00 51 999.0
20260504040025 10 212 14.5 19.3 0.00 0.00 0.00 53 999.4
20260504034523 9 214 11.3 16.1 0.00 0.00 0.00 56 999.7
20260504033023 10 201 11.3 14.5 0.00 0.00 0.00 53 999.9
20260504031520 10 203 11.3 14.5 0.00 0.00 0.00 52 1000.2
20260504030027 11 207 12.9 17.7 0.00 0.00 0.00 53 1000.4
20260504024516 12 205 12.9 17.7 0.00 0.00 0.00 50 1000.6
20260504023014 11 216 11.3 17.7 0.00 0.00 0.00 53 1000.9
20260504021513 11 229 8.0 14.5 0.00 0.00 0.00 52 1001.0
20260504020017 12 231 9.7 12.9 0.00 0.00 0.00 48 1001.1
20260504014512 12 219 6.4 11.3 0.00 0.00 0.00 48 1001.1
20260504013011 14 243 6.4 9.7 0.00 0.00 0.00 42 1001.2
20260504011509 17 233 6.4 14.5 0.00 0.00 0.00 36 1001.4
20260504010007 18 228 4.8 11.3 0.00 0.00 0.00 34 1001.5
20260504004507 19 273 8.0 12.9 0.00 0.00 0.00 30 1001.6
20260504003005 20 240 9.7 17.7 0.00 0.00 0.00 28 1001.7
20260504001504 20 262 12.9 22.5 0.00 0.00 0.00 28 1001.8
20260504000006 20 270 9.7 24.1 0.00 0.00 0.00 26 1001.8
20260503234503 20 262 14.5 22.5 0.00 0.00 0.00 25 1002.1
20260503233102 20 246 16.1 30.6 0.00 0.00 0.00 25 1002.3
20260503231559 21 256 14.5 25.7 0.00 0.00 0.00 25 1002.3
20260503230100 21 231 12.9 24.1 0.00 0.00 0.00 25 1002.6
20260503224555 21 267 20.9 27.4 0.00 0.00 0.00 24 1002.8
20260503223055 21 260 19.3 29.0 0.00 0.00 0.00 24 1003.0
20260503221552 21 285 17.7 29.0 0.00 0.00 0.00 25 1003.1